Year,Month,Day,Hour,Minute,Value (Times are PST for windspeed in km/hr)
2016,06,13,00,00,0.00
2016,06,13,00,01,0.00
2016,06,13,00,02,0.00
2016,06,13,00,03,0.00
2016,06,13,00,04,0.00
2016,06,13,00,05,0.00
2016,06,13,00,06,0.00
2016,06,13,00,07,0.00
2016,06,13,00,08,0.00
2016,06,13,00,09,0.00
2016,06,13,00,10,0.00
2016,06,13,00,11,0.00
2016,06,13,00,12,0.00
2016,06,13,00,13,0.00
2016,06,13,00,14,0.20
2016,06,13,00,15,0.00
2016,06,13,00,16,0.00
2016,06,13,00,17,0.00
2016,06,13,00,18,0.00
2016,06,13,00,19,0.00
2016,06,13,00,20,0.00
2016,06,13,00,21,0.00
2016,06,13,00,22,0.00
2016,06,13,00,23,0.00
2016,06,13,00,24,0.00
2016,06,13,00,25,0.00
2016,06,13,00,26,0.00
2016,06,13,00,27,0.00
2016,06,13,00,28,0.00
2016,06,13,00,29,0.00
2016,06,13,00,30,0.00
2016,06,13,00,31,0.00
2016,06,13,00,32,0.00
2016,06,13,00,33,0.00
2016,06,13,00,34,0.00
2016,06,13,00,35,0.00
2016,06,13,00,36,0.00
2016,06,13,00,37,0.00
2016,06,13,00,38,0.00
2016,06,13,00,39,0.00
2016,06,13,00,40,0.00
2016,06,13,00,41,0.00
2016,06,13,00,42,0.00
2016,06,13,00,43,0.00
2016,06,13,00,44,0.00
2016,06,13,00,45,0.00
2016,06,13,00,46,0.00
2016,06,13,00,47,0.00
2016,06,13,00,48,0.00
2016,06,13,00,49,0.00
2016,06,13,00,50,0.00
2016,06,13,00,51,0.00
2016,06,13,00,52,0.00
2016,06,13,00,53,0.00
2016,06,13,00,54,0.00
2016,06,13,00,55,0.00
2016,06,13,00,56,0.00
2016,06,13,00,57,0.00
2016,06,13,00,58,0.00
2016,06,13,00,59,0.00
2016,06,13,01,00,0.00
2016,06,13,01,01,0.00
2016,06,13,01,02,0.00
2016,06,13,01,03,0.00
2016,06,13,01,04,0.00
2016,06,13,01,05,0.00
2016,06,13,01,06,0.00
2016,06,13,01,07,0.00
2016,06,13,01,08,0.00
2016,06,13,01,09,0.00
2016,06,13,01,10,0.10
2016,06,13,01,11,0.20
2016,06,13,01,12,0.10
2016,06,13,01,13,0.00
2016,06,13,01,14,0.00
2016,06,13,01,15,0.00
2016,06,13,01,16,0.00
2016,06,13,01,17,0.00
2016,06,13,01,18,0.00
2016,06,13,01,19,0.00
2016,06,13,01,20,0.00
2016,06,13,01,21,0.00
2016,06,13,01,22,0.00
2016,06,13,01,23,0.00
2016,06,13,01,24,0.00
2016,06,13,01,25,0.00
2016,06,13,01,26,0.00
2016,06,13,01,27,0.00
2016,06,13,01,28,0.00
2016,06,13,01,29,0.00
2016,06,13,01,30,0.00
2016,06,13,01,31,0.00
2016,06,13,01,32,0.00
2016,06,13,01,33,1.30
2016,06,13,01,34,0.40
2016,06,13,01,35,0.00
2016,06,13,01,36,0.00
2016,06,13,01,37,0.00
2016,06,13,01,38,0.00
2016,06,13,01,39,0.10
2016,06,13,01,40,0.00
2016,06,13,01,41,0.00
2016,06,13,01,42,0.00
2016,06,13,01,43,0.00
2016,06,13,01,44,0.00
2016,06,13,01,45,0.00
2016,06,13,01,46,0.00
2016,06,13,01,47,0.00
2016,06,13,01,48,0.00
2016,06,13,01,49,0.00
2016,06,13,01,50,0.00
2016,06,13,01,51,0.00
2016,06,13,01,52,0.00
2016,06,13,01,53,0.00
2016,06,13,01,54,0.00
2016,06,13,01,55,0.00
2016,06,13,01,56,0.00
2016,06,13,01,57,0.00
2016,06,13,01,58,0.00
2016,06,13,01,59,0.00
2016,06,13,02,00,0.00
2016,06,13,02,01,0.00
2016,06,13,02,02,0.00
2016,06,13,02,03,0.00
2016,06,13,02,04,0.00
2016,06,13,02,05,0.00
2016,06,13,02,06,0.00
2016,06,13,02,07,0.00
2016,06,13,02,08,0.00
2016,06,13,02,09,0.00
2016,06,13,02,10,0.00
2016,06,13,02,11,0.00
2016,06,13,02,12,0.00
2016,06,13,02,13,0.00
2016,06,13,02,14,0.00
2016,06,13,02,15,0.00
2016,06,13,02,16,0.00
2016,06,13,02,17,0.00
2016,06,13,02,18,0.00
2016,06,13,02,19,0.00
2016,06,13,02,20,0.00
2016,06,13,02,21,0.00
2016,06,13,02,22,0.00
2016,06,13,02,23,0.00
2016,06,13,02,24,0.10
2016,06,13,02,25,0.00
2016,06,13,02,26,0.00
2016,06,13,02,27,0.00
2016,06,13,02,28,0.20
2016,06,13,02,29,0.00
2016,06,13,02,30,0.00
2016,06,13,02,31,0.10
2016,06,13,02,32,0.00
2016,06,13,02,33,1.20
2016,06,13,02,34,1.50
2016,06,13,02,35,0.00
2016,06,13,02,36,0.00
2016,06,13,02,37,0.00
2016,06,13,02,38,0.00
2016,06,13,02,39,0.10
2016,06,13,02,40,0.00
2016,06,13,02,41,0.00
2016,06,13,02,42,0.00
2016,06,13,02,43,0.00
2016,06,13,02,44,0.00
2016,06,13,02,45,0.00
2016,06,13,02,46,0.00
2016,06,13,02,47,0.00
2016,06,13,02,48,0.00
2016,06,13,02,49,0.00
2016,06,13,02,50,0.10
2016,06,13,02,51,0.00
2016,06,13,02,52,0.20
2016,06,13,02,53,0.00
2016,06,13,02,54,0.00
2016,06,13,02,55,0.00
2016,06,13,02,56,0.10
2016,06,13,02,57,3.90
2016,06,13,02,58,5.60
2016,06,13,02,59,3.90
2016,06,13,03,00,1.50
2016,06,13,03,01,2.70
2016,06,13,03,02,0.00
2016,06,13,03,03,0.60
2016,06,13,03,04,0.60
2016,06,13,03,05,0.00
2016,06,13,03,06,0.00
2016,06,13,03,07,0.00
2016,06,13,03,08,0.00
2016,06,13,03,09,0.00
2016,06,13,03,10,0.00
2016,06,13,03,11,0.00
2016,06,13,03,12,0.70
2016,06,13,03,13,0.00
2016,06,13,03,14,3.20
2016,06,13,03,15,3.60
2016,06,13,03,16,0.90
2016,06,13,03,17,2.10
2016,06,13,03,18,4.50
2016,06,13,03,19,2.10
2016,06,13,03,20,0.00
2016,06,13,03,21,0.00
2016,06,13,03,22,0.00
2016,06,13,03,23,0.10
2016,06,13,03,24,0.00
2016,06,13,03,25,0.00
2016,06,13,03,26,0.00
2016,06,13,03,27,0.00
2016,06,13,03,28,0.10
2016,06,13,03,29,0.00
2016,06,13,03,30,0.00
2016,06,13,03,31,0.00
2016,06,13,03,32,0.00
2016,06,13,03,33,0.00
2016,06,13,03,34,0.00
2016,06,13,03,35,0.00
2016,06,13,03,36,0.00
2016,06,13,03,37,0.00
2016,06,13,03,38,0.00
2016,06,13,03,39,0.00
2016,06,13,03,40,0.00
2016,06,13,03,41,0.00
2016,06,13,03,42,0.00
2016,06,13,03,43,0.00
2016,06,13,03,44,0.00
2016,06,13,03,45,0.00
2016,06,13,03,46,0.00
2016,06,13,03,47,0.00
2016,06,13,03,48,0.00
2016,06,13,03,49,0.00
2016,06,13,03,50,0.00
2016,06,13,03,51,0.00
2016,06,13,03,52,0.00
2016,06,13,03,53,0.00
2016,06,13,03,54,0.00
2016,06,13,03,55,0.00
2016,06,13,03,56,0.00
2016,06,13,03,57,0.00
2016,06,13,03,58,0.00
2016,06,13,03,59,0.00
2016,06,13,04,00,0.00
2016,06,13,04,01,0.00
2016,06,13,04,02,0.00
2016,06,13,04,03,0.00
2016,06,13,04,04,0.00
2016,06,13,04,05,0.00
2016,06,13,04,06,0.00
2016,06,13,04,07,0.10
2016,06,13,04,08,0.00
2016,06,13,04,09,0.00
2016,06,13,04,10,0.00
2016,06,13,04,11,0.00
2016,06,13,04,12,0.00
2016,06,13,04,13,0.00
2016,06,13,04,14,0.00
2016,06,13,04,15,0.00
2016,06,13,04,16,0.00
2016,06,13,04,17,0.00
2016,06,13,04,18,0.00
2016,06,13,04,19,0.00
2016,06,13,04,20,0.00
2016,06,13,04,21,0.00
2016,06,13,04,22,0.00
2016,06,13,04,23,0.10
2016,06,13,04,24,0.00
2016,06,13,04,25,0.00
2016,06,13,04,26,0.00
2016,06,13,04,27,0.00
2016,06,13,04,28,0.00
2016,06,13,04,29,0.00
2016,06,13,04,30,0.00
2016,06,13,04,31,0.00
2016,06,13,04,32,0.00
2016,06,13,04,33,0.00
2016,06,13,04,34,0.00
2016,06,13,04,35,0.00
2016,06,13,04,36,0.00
2016,06,13,04,37,0.00
2016,06,13,04,38,0.00
2016,06,13,04,39,0.00
2016,06,13,04,40,0.00
2016,06,13,04,41,0.00
2016,06,13,04,42,0.00
2016,06,13,04,43,0.00
2016,06,13,04,44,0.00
2016,06,13,04,45,0.00
2016,06,13,04,46,0.00
2016,06,13,04,47,0.10
2016,06,13,04,48,0.00
2016,06,13,04,49,0.00
2016,06,13,04,50,0.00
2016,06,13,04,51,0.10
2016,06,13,04,52,0.00
2016,06,13,04,53,0.00
2016,06,13,04,54,0.00
2016,06,13,04,55,0.00
2016,06,13,04,56,0.00
2016,06,13,04,57,0.00
2016,06,13,04,58,0.00
2016,06,13,04,59,0.00
2016,06,13,05,00,0.00
2016,06,13,05,01,0.00
2016,06,13,05,02,0.00
2016,06,13,05,03,0.00
2016,06,13,05,04,0.00
2016,06,13,05,05,0.00
2016,06,13,05,06,0.00
2016,06,13,05,07,0.10
2016,06,13,05,08,0.00
2016,06,13,05,09,0.00
2016,06,13,05,10,0.00
2016,06,13,05,11,0.00
2016,06,13,05,12,0.00
2016,06,13,05,13,0.00
2016,06,13,05,14,0.00
2016,06,13,05,15,0.00
2016,06,13,05,16,0.00
2016,06,13,05,17,0.00
2016,06,13,05,18,0.00
2016,06,13,05,19,0.00
2016,06,13,05,20,0.00
2016,06,13,05,21,0.00
2016,06,13,05,22,0.00
2016,06,13,05,23,0.00
2016,06,13,05,24,0.00
2016,06,13,05,25,0.00
2016,06,13,05,26,0.00
2016,06,13,05,27,0.00
2016,06,13,05,28,0.00
2016,06,13,05,29,0.00
2016,06,13,05,30,0.00
2016,06,13,05,31,0.00
2016,06,13,05,32,0.10
2016,06,13,05,33,0.00
2016,06,13,05,34,0.10
2016,06,13,05,35,2.20
2016,06,13,05,36,0.30
2016,06,13,05,37,1.60
2016,06,13,05,38,0.10
2016,06,13,05,39,1.70
2016,06,13,05,40,1.30
2016,06,13,05,41,0.00
2016,06,13,05,42,0.00
2016,06,13,05,43,0.00
2016,06,13,05,44,0.00
2016,06,13,05,45,0.00
2016,06,13,05,46,0.00
2016,06,13,05,47,0.00
2016,06,13,05,48,0.00
2016,06,13,05,49,0.00
2016,06,13,05,50,0.00
2016,06,13,05,51,0.00
2016,06,13,05,52,0.00
2016,06,13,05,53,0.00
2016,06,13,05,54,0.10
2016,06,13,05,55,0.00
2016,06,13,05,56,0.00
2016,06,13,05,57,0.00
2016,06,13,05,58,0.00
2016,06,13,05,59,0.00
2016,06,13,06,00,0.00
2016,06,13,06,01,0.00
2016,06,13,06,02,0.00
2016,06,13,06,03,0.00
2016,06,13,06,04,0.00
2016,06,13,06,05,0.10
2016,06,13,06,06,0.00
2016,06,13,06,07,0.00
2016,06,13,06,08,3.10
2016,06,13,06,09,4.10
2016,06,13,06,10,0.20
2016,06,13,06,11,0.10
2016,06,13,06,12,0.00
2016,06,13,06,13,0.80
2016,06,13,06,14,8.50
2016,06,13,06,15,5.60
2016,06,13,06,16,0.10
2016,06,13,06,17,3.80
2016,06,13,06,18,1.60
2016,06,13,06,19,1.10
2016,06,13,06,20,1.00
2016,06,13,06,21,0.60
2016,06,13,06,22,6.60
2016,06,13,06,23,0.00
2016,06,13,06,24,1.40
2016,06,13,06,25,4.10
2016,06,13,06,26,0.00
2016,06,13,06,27,0.00
2016,06,13,06,28,0.00
2016,06,13,06,29,0.00
2016,06,13,06,30,2.20
2016,06,13,06,31,4.80
2016,06,13,06,32,1.60
2016,06,13,06,33,1.00
2016,06,13,06,34,0.00
2016,06,13,06,35,0.00
2016,06,13,06,36,0.00
2016,06,13,06,37,0.00
2016,06,13,06,38,0.00
2016,06,13,06,39,1.90
2016,06,13,06,40,3.30
2016,06,13,06,41,1.20
2016,06,13,06,42,0.20
2016,06,13,06,43,9.60
2016,06,13,06,44,6.20
2016,06,13,06,45,6.40
2016,06,13,06,46,3.80
2016,06,13,06,47,7.00
2016,06,13,06,48,5.40
2016,06,13,06,49,4.30
2016,06,13,06,50,6.00
2016,06,13,06,51,1.40
2016,06,13,06,52,0.10
2016,06,13,06,53,0.00
2016,06,13,06,54,1.30
2016,06,13,06,55,3.70
2016,06,13,06,56,0.50
2016,06,13,06,57,0.00
2016,06,13,06,58,0.10
2016,06,13,06,59,0.20
2016,06,13,07,00,1.00
2016,06,13,07,01,2.40
2016,06,13,07,02,0.60
2016,06,13,07,03,0.70
2016,06,13,07,04,0.60
2016,06,13,07,05,0.20
2016,06,13,07,06,0.70
2016,06,13,07,07,1.40
2016,06,13,07,08,4.30
2016,06,13,07,09,7.10
2016,06,13,07,10,0.60
2016,06,13,07,11,5.80
2016,06,13,07,12,5.40
2016,06,13,07,13,4.30
2016,06,13,07,14,1.30
2016,06,13,07,15,0.00
2016,06,13,07,16,2.10
2016,06,13,07,17,1.10
2016,06,13,07,18,0.00
2016,06,13,07,19,0.60
2016,06,13,07,20,1.50
2016,06,13,07,21,6.50
2016,06,13,07,22,1.40
2016,06,13,07,23,3.70
2016,06,13,07,24,2.30
2016,06,13,07,25,7.00
2016,06,13,07,26,3.30
2016,06,13,07,27,0.10
2016,06,13,07,28,0.20
2016,06,13,07,29,0.10
2016,06,13,07,30,0.20
2016,06,13,07,31,0.00
2016,06,13,07,32,0.00
2016,06,13,07,33,0.00
2016,06,13,07,34,0.00
2016,06,13,07,35,0.00
2016,06,13,07,36,0.00
2016,06,13,07,37,1.60
2016,06,13,07,38,0.80
2016,06,13,07,39,0.00
2016,06,13,07,40,0.00
2016,06,13,07,41,0.00
2016,06,13,07,42,0.40
2016,06,13,07,43,0.00
2016,06,13,07,44,2.10
2016,06,13,07,45,4.00
2016,06,13,07,46,0.80
2016,06,13,07,47,0.00
2016,06,13,07,48,0.00
2016,06,13,07,49,1.40
2016,06,13,07,50,0.70
2016,06,13,07,51,3.20
2016,06,13,07,52,0.10
2016,06,13,07,53,0.90
2016,06,13,07,54,3.90
2016,06,13,07,55,4.60
2016,06,13,07,56,5.20
2016,06,13,07,57,1.50
2016,06,13,07,58,0.00
2016,06,13,07,59,0.00
2016,06,13,08,00,0.60
2016,06,13,08,01,0.20
2016,06,13,08,02,2.80
2016,06,13,08,03,8.20
2016,06,13,08,04,7.60
2016,06,13,08,05,6.10
2016,06,13,08,06,5.10
2016,06,13,08,07,4.60
2016,06,13,08,08,3.20
2016,06,13,08,09,11.10
2016,06,13,08,10,9.10
2016,06,13,08,11,9.70
2016,06,13,08,12,6.90
2016,06,13,08,13,8.90
2016,06,13,08,14,5.80
2016,06,13,08,15,9.20
2016,06,13,08,16,7.80
2016,06,13,08,17,7.60
2016,06,13,08,18,9.80
2016,06,13,08,19,10.50
2016,06,13,08,20,6.40
2016,06,13,08,21,13.70
2016,06,13,08,22,5.60
2016,06,13,08,23,7.40
2016,06,13,08,24,12.00
2016,06,13,08,25,17.10
2016,06,13,08,26,15.60
2016,06,13,08,27,11.20
2016,06,13,08,28,11.30
2016,06,13,08,29,6.40
2016,06,13,08,30,2.50
2016,06,13,08,31,4.10
2016,06,13,08,32,2.00
2016,06,13,08,33,8.10
2016,06,13,08,34,9.40
2016,06,13,08,35,5.10
2016,06,13,08,36,7.40
2016,06,13,08,37,8.90
2016,06,13,08,38,13.40
2016,06,13,08,39,7.40
2016,06,13,08,40,2.20
2016,06,13,08,41,0.00
2016,06,13,08,42,10.10
2016,06,13,08,43,11.90
2016,06,13,08,44,12.20
2016,06,13,08,45,16.20
2016,06,13,08,46,11.40
2016,06,13,08,47,2.80
2016,06,13,08,48,2.70
2016,06,13,08,49,5.80
2016,06,13,08,50,6.40
2016,06,13,08,51,8.20
2016,06,13,08,52,2.20
2016,06,13,08,53,0.50
2016,06,13,08,54,1.20
2016,06,13,08,55,6.80
2016,06,13,08,56,5.60
2016,06,13,08,57,0.20
2016,06,13,08,58,3.40
2016,06,13,08,59,5.60
2016,06,13,09,00,3.50
2016,06,13,09,01,6.40
2016,06,13,09,02,10.50
2016,06,13,09,03,7.60
2016,06,13,09,04,10.00
2016,06,13,09,05,7.70
2016,06,13,09,06,4.50
2016,06,13,09,07,0.60
2016,06,13,09,08,4.10
2016,06,13,09,09,2.20
2016,06,13,09,10,1.80
2016,06,13,09,11,6.40
2016,06,13,09,12,7.60
2016,06,13,09,13,1.90
2016,06,13,09,14,5.30
2016,06,13,09,15,1.30
2016,06,13,09,16,4.60
2016,06,13,09,17,4.00
2016,06,13,09,18,2.70
2016,06,13,09,19,1.50
2016,06,13,09,20,6.70
2016,06,13,09,21,6.20
2016,06,13,09,22,0.90
2016,06,13,09,23,0.40
2016,06,13,09,24,4.30
2016,06,13,09,25,3.80
2016,06,13,09,26,1.60
2016,06,13,09,27,9.00
2016,06,13,09,28,10.90
2016,06,13,09,29,7.00
2016,06,13,09,30,2.20
2016,06,13,09,31,0.40
2016,06,13,09,32,8.20
2016,06,13,09,33,16.10
2016,06,13,09,34,18.70
2016,06,13,09,35,18.10
2016,06,13,09,36,16.90
2016,06,13,09,37,12.40
2016,06,13,09,38,18.40
2016,06,13,09,39,21.80
2016,06,13,09,40,14.70
2016,06,13,09,41,15.70
2016,06,13,09,42,21.50
2016,06,13,09,43,12.60
2016,06,13,09,44,16.90
2016,06,13,09,45,14.20
2016,06,13,09,46,13.60
2016,06,13,09,47,16.80
2016,06,13,09,48,20.20
2016,06,13,09,49,15.20
2016,06,13,09,50,8.60
2016,06,13,09,51,17.90
2016,06,13,09,52,14.40
2016,06,13,09,53,14.30
2016,06,13,09,54,13.30
2016,06,13,09,55,17.40
2016,06,13,09,56,14.60
2016,06,13,09,57,17.00
2016,06,13,09,58,13.00
2016,06,13,09,59,15.50
2016,06,13,10,00,15.90
2016,06,13,10,01,12.70
2016,06,13,10,02,13.30
2016,06,13,10,03,20.00
2016,06,13,10,04,15.90
2016,06,13,10,05,4.30
2016,06,13,10,06,0.40
2016,06,13,10,07,8.30
2016,06,13,10,08,10.20
2016,06,13,10,09,5.70
2016,06,13,10,10,25.10
2016,06,13,10,11,7.80
2016,06,13,10,12,11.40
2016,06,13,10,13,8.10
2016,06,13,10,14,12.40
2016,06,13,10,15,18.80
2016,06,13,10,16,17.60
2016,06,13,10,17,16.30
2016,06,13,10,18,10.80
2016,06,13,10,19,4.30
2016,06,13,10,20,4.60
2016,06,13,10,21,11.50
2016,06,13,10,22,8.70
2016,06,13,10,23,12.00
2016,06,13,10,24,16.10
2016,06,13,10,25,17.10
2016,06,13,10,26,11.70
2016,06,13,10,27,8.00
2016,06,13,10,28,4.30
2016,06,13,10,29,17.40
2016,06,13,10,30,20.00
2016,06,13,10,31,4.90
2016,06,13,10,32,2.00
2016,06,13,10,33,5.80
2016,06,13,10,34,9.70
2016,06,13,10,35,18.90
2016,06,13,10,36,8.40
2016,06,13,10,37,13.50
2016,06,13,10,38,5.20
2016,06,13,10,39,10.10
2016,06,13,10,40,5.60
2016,06,13,10,41,18.50
2016,06,13,10,42,12.10
2016,06,13,10,43,8.90
2016,06,13,10,44,9.40
2016,06,13,10,45,5.20
2016,06,13,10,46,12.40
2016,06,13,10,47,14.30
2016,06,13,10,48,1.30
2016,06,13,10,49,8.80
2016,06,13,10,50,9.40
2016,06,13,10,51,3.80
2016,06,13,10,52,7.40
2016,06,13,10,53,13.40
2016,06,13,10,54,12.50
2016,06,13,10,55,14.20
2016,06,13,10,56,13.70
2016,06,13,10,57,19.20
2016,06,13,10,58,8.10
2016,06,13,10,59,9.10
2016,06,13,11,00,11.00
2016,06,13,11,01,6.90
2016,06,13,11,02,13.30
2016,06,13,11,03,10.40
2016,06,13,11,04,5.10
2016,06,13,11,05,10.30
2016,06,13,11,06,9.40
2016,06,13,11,07,10.60
2016,06,13,11,08,4.00
2016,06,13,11,09,5.20
2016,06,13,11,10,2.20
2016,06,13,11,11,2.30
2016,06,13,11,12,6.70
2016,06,13,11,13,11.70
2016,06,13,11,14,10.30
2016,06,13,11,15,9.90
2016,06,13,11,16,5.60
2016,06,13,11,17,8.20
2016,06,13,11,18,4.00
2016,06,13,11,19,11.90
2016,06,13,11,20,5.20
2016,06,13,11,21,9.70
2016,06,13,11,22,14.20
2016,06,13,11,23,8.90
2016,06,13,11,24,7.80
2016,06,13,11,25,18.50
2016,06,13,11,26,13.40
2016,06,13,11,27,11.60
2016,06,13,11,28,6.40
2016,06,13,11,29,14.60
2016,06,13,11,30,15.70
2016,06,13,11,31,12.70
2016,06,13,11,32,16.70
2016,06,13,11,33,21.90
2016,06,13,11,34,20.30
2016,06,13,11,35,9.40
2016,06,13,11,36,5.10
2016,06,13,11,37,5.80
2016,06,13,11,38,5.00
2016,06,13,11,39,9.60
2016,06,13,11,40,9.50
2016,06,13,11,41,16.80
2016,06,13,11,42,14.40
2016,06,13,11,43,12.30
2016,06,13,11,44,4.30
2016,06,13,11,45,3.90
2016,06,13,11,46,9.40
2016,06,13,11,47,9.80
2016,06,13,11,48,10.60
2016,06,13,11,49,7.20
2016,06,13,11,50,21.20
2016,06,13,11,51,18.40
2016,06,13,11,52,14.60
2016,06,13,11,53,16.20
2016,06,13,11,54,19.00
2016,06,13,11,55,20.80
2016,06,13,11,56,14.90
2016,06,13,11,57,5.60
2016,06,13,11,58,10.20
2016,06,13,11,59,12.50
2016,06,13,12,00,10.90
2016,06,13,12,01,16.20
2016,06,13,12,02,21.50
2016,06,13,12,03,14.10
2016,06,13,12,04,11.30
2016,06,13,12,05,8.70
2016,06,13,12,06,9.50
2016,06,13,12,07,7.30
2016,06,13,12,08,15.20
2016,06,13,12,09,17.90
2016,06,13,12,10,13.20
2016,06,13,12,11,17.80
2016,06,13,12,12,8.90
2016,06,13,12,13,10.70
2016,06,13,12,14,7.70
2016,06,13,12,15,9.00
2016,06,13,12,16,2.50
2016,06,13,12,17,3.10
2016,06,13,12,18,4.10
2016,06,13,12,19,6.30
2016,06,13,12,20,15.40
2016,06,13,12,21,6.80
2016,06,13,12,22,16.60
2016,06,13,12,23,22.30
2016,06,13,12,24,14.00
2016,06,13,12,25,10.50
2016,06,13,12,26,18.70
2016,06,13,12,27,17.80
2016,06,13,12,28,23.70
2016,06,13,12,29,13.80
2016,06,13,12,30,21.70
2016,06,13,12,31,22.10
2016,06,13,12,32,17.70
2016,06,13,12,33,15.40
2016,06,13,12,34,12.40
2016,06,13,12,35,12.20
2016,06,13,12,36,16.70
2016,06,13,12,37,22.00
2016,06,13,12,38,22.10
2016,06,13,12,39,16.00
2016,06,13,12,40,17.40
2016,06,13,12,41,23.80
2016,06,13,12,42,16.50
2016,06,13,12,43,17.60
2016,06,13,12,44,15.20
2016,06,13,12,45,16.40
2016,06,13,12,46,20.00
2016,06,13,12,47,23.70
2016,06,13,12,48,13.30
2016,06,13,12,49,14.10
2016,06,13,12,50,16.40
2016,06,13,12,51,15.90
2016,06,13,12,52,19.00
2016,06,13,12,53,15.90
2016,06,13,12,54,14.90
2016,06,13,12,55,9.20
2016,06,13,12,56,13.80
2016,06,13,12,57,21.20
2016,06,13,12,58,26.60
2016,06,13,12,59,17.30
2016,06,13,13,00,17.50
2016,06,13,13,01,24.50
2016,06,13,13,02,17.40
2016,06,13,13,03,20.30
2016,06,13,13,04,19.50
2016,06,13,13,05,15.00
2016,06,13,13,06,11.20
2016,06,13,13,07,25.30
2016,06,13,13,08,14.60
2016,06,13,13,09,16.90
2016,06,13,13,10,19.10
2016,06,13,13,11,13.10
2016,06,13,13,12,20.00
2016,06,13,13,13,18.50
2016,06,13,13,14,18.10
2016,06,13,13,15,17.20
2016,06,13,13,16,12.30
2016,06,13,13,17,23.80
2016,06,13,13,18,16.40
2016,06,13,13,19,20.10
2016,06,13,13,20,20.50
2016,06,13,13,21,18.80
2016,06,13,13,22,23.70
2016,06,13,13,23,12.30
2016,06,13,13,24,8.00
2016,06,13,13,25,7.10
2016,06,13,13,26,7.50
2016,06,13,13,27,6.70
2016,06,13,13,28,2.30
2016,06,13,13,29,3.50
2016,06,13,13,30,7.30
2016,06,13,13,31,15.10
2016,06,13,13,32,18.40
2016,06,13,13,33,12.30
2016,06,13,13,34,12.90
2016,06,13,13,35,28.90
2016,06,13,13,36,25.30
2016,06,13,13,37,22.40
2016,06,13,13,38,21.00
2016,06,13,13,39,11.80
2016,06,13,13,40,21.80
2016,06,13,13,41,34.60
2016,06,13,13,42,23.60
2016,06,13,13,43,28.70
2016,06,13,13,44,15.90
2016,06,13,13,45,24.40
2016,06,13,13,46,11.20
2016,06,13,13,47,16.00
2016,06,13,13,48,17.50
2016,06,13,13,49,26.90
2016,06,13,13,50,17.40
2016,06,13,13,51,25.10
2016,06,13,13,52,21.90
2016,06,13,13,53,18.30
2016,06,13,13,54,12.00
2016,06,13,13,55,19.60
2016,06,13,13,56,20.40
2016,06,13,13,57,22.20
2016,06,13,13,58,21.70
2016,06,13,13,59,26.20
2016,06,13,14,00,21.80
2016,06,13,14,01,9.20
2016,06,13,14,02,1.10
2016,06,13,14,03,7.80
2016,06,13,14,04,30.70
2016,06,13,14,05,19.20
2016,06,13,14,06,24.50
2016,06,13,14,07,22.20
2016,06,13,14,08,15.70
2016,06,13,14,09,23.10
2016,06,13,14,10,23.30
2016,06,13,14,11,27.80
2016,06,13,14,12,26.10
2016,06,13,14,13,25.20
2016,06,13,14,14,17.20
2016,06,13,14,15,24.40
2016,06,13,14,16,21.80
2016,06,13,14,17,11.40
2016,06,13,14,18,18.90
2016,06,13,14,19,21.00
2016,06,13,14,20,13.10
2016,06,13,14,21,22.40
2016,06,13,14,22,22.50
2016,06,13,14,23,19.10
2016,06,13,14,24,17.20
2016,06,13,14,25,9.20
2016,06,13,14,26,12.30
2016,06,13,14,27,14.50
2016,06,13,14,28,8.70
2016,06,13,14,29,20.30
2016,06,13,14,30,13.80
2016,06,13,14,31,21.60
2016,06,13,14,32,22.90
2016,06,13,14,33,10.40
2016,06,13,14,34,17.30
2016,06,13,14,35,21.90
2016,06,13,14,36,14.90
2016,06,13,14,37,17.00
2016,06,13,14,38,22.80
2016,06,13,14,39,22.60
2016,06,13,14,40,13.00
2016,06,13,14,41,13.70
2016,06,13,14,42,21.30
2016,06,13,14,43,17.90
2016,06,13,14,44,18.00
2016,06,13,14,45,11.60
2016,06,13,14,46,20.70
2016,06,13,14,47,8.50
2016,06,13,14,48,17.40
2016,06,13,14,49,13.00
2016,06,13,14,50,13.10
2016,06,13,14,51,28.60
2016,06,13,14,52,23.60
2016,06,13,14,53,24.70
2016,06,13,14,54,21.60
2016,06,13,14,55,11.80
2016,06,13,14,56,14.60
2016,06,13,14,57,14.50
2016,06,13,14,58,12.60
2016,06,13,14,59,17.50
2016,06,13,15,00,15.90
2016,06,13,15,01,18.50
2016,06,13,15,02,16.70
2016,06,13,15,03,13.90
2016,06,13,15,04,12.40
2016,06,13,15,05,19.20
2016,06,13,15,06,16.50
2016,06,13,15,07,27.90
2016,06,13,15,08,17.70
2016,06,13,15,09,26.60
2016,06,13,15,10,21.80
2016,06,13,15,11,20.10
2016,06,13,15,12,23.30
2016,06,13,15,13,23.80
2016,06,13,15,14,22.40
2016,06,13,15,15,24.50
2016,06,13,15,16,25.80
2016,06,13,15,17,27.50
2016,06,13,15,18,25.40
2016,06,13,15,19,19.90
2016,06,13,15,20,24.10
2016,06,13,15,21,18.20
2016,06,13,15,22,16.20
2016,06,13,15,23,21.20
2016,06,13,15,24,15.70
2016,06,13,15,25,16.90
2016,06,13,15,26,14.10
2016,06,13,15,27,5.10
2016,06,13,15,28,8.40
2016,06,13,15,29,14.70
2016,06,13,15,30,11.30
2016,06,13,15,31,2.00
2016,06,13,15,32,10.90
2016,06,13,15,33,10.60
2016,06,13,15,34,9.70
2016,06,13,15,35,14.80
2016,06,13,15,36,22.40
2016,06,13,15,37,20.00
2016,06,13,15,38,19.80
2016,06,13,15,39,22.00
2016,06,13,15,40,22.80
2016,06,13,15,41,16.80
2016,06,13,15,42,17.00
2016,06,13,15,43,17.40
2016,06,13,15,44,20.00
2016,06,13,15,45,17.30
2016,06,13,15,46,26.20
2016,06,13,15,47,21.20
2016,06,13,15,48,19.50
2016,06,13,15,49,16.10
2016,06,13,15,50,20.40
2016,06,13,15,51,11.30
2016,06,13,15,52,20.80
2016,06,13,15,53,15.80
2016,06,13,15,54,13.70
2016,06,13,15,55,9.30
2016,06,13,15,56,3.60
2016,06,13,15,57,6.30
2016,06,13,15,58,2.80
2016,06,13,15,59,6.00
2016,06,13,16,00,8.40
2016,06,13,16,01,8.00
2016,06,13,16,02,5.90
2016,06,13,16,03,5.10
2016,06,13,16,04,8.40
2016,06,13,16,05,8.70
2016,06,13,16,06,4.00
2016,06,13,16,07,7.70
2016,06,13,16,08,14.60
2016,06,13,16,09,10.40
2016,06,13,16,10,5.20
2016,06,13,16,11,10.00
2016,06,13,16,12,7.50
2016,06,13,16,13,7.50
2016,06,13,16,14,5.00
2016,06,13,16,15,10.70
2016,06,13,16,16,4.40
2016,06,13,16,17,10.80
2016,06,13,16,18,10.50
2016,06,13,16,19,3.70
2016,06,13,16,20,5.60
2016,06,13,16,21,10.40
2016,06,13,16,22,5.00
2016,06,13,16,23,3.90
2016,06,13,16,24,10.40
2016,06,13,16,25,16.90
2016,06,13,16,26,15.90
2016,06,13,16,27,22.00
2016,06,13,16,28,19.40
2016,06,13,16,29,13.80
2016,06,13,16,30,19.10
2016,06,13,16,31,10.40
2016,06,13,16,32,2.80
2016,06,13,16,33,5.80
2016,06,13,16,34,14.20
2016,06,13,16,35,14.20
2016,06,13,16,36,9.50
2016,06,13,16,37,18.30
2016,06,13,16,38,24.00
2016,06,13,16,39,16.70
2016,06,13,16,40,11.00
2016,06,13,16,41,15.10
2016,06,13,16,42,21.90
2016,06,13,16,43,20.70
2016,06,13,16,44,20.40
2016,06,13,16,45,21.30
2016,06,13,16,46,14.80
2016,06,13,16,47,16.20
2016,06,13,16,48,9.30
2016,06,13,16,49,12.00
2016,06,13,16,50,15.20
2016,06,13,16,51,15.90
2016,06,13,16,52,12.20
2016,06,13,16,53,16.80
2016,06,13,16,54,23.60
2016,06,13,16,55,17.00
2016,06,13,16,56,22.10
2016,06,13,16,57,19.10
2016,06,13,16,58,20.60
2016,06,13,16,59,20.10
2016,06,13,17,00,19.20
2016,06,13,17,01,13.30
2016,06,13,17,02,10.00
2016,06,13,17,03,12.10
2016,06,13,17,04,16.40
2016,06,13,17,05,13.40
2016,06,13,17,06,1.60
2016,06,13,17,07,8.90
2016,06,13,17,08,17.00
2016,06,13,17,09,16.30
2016,06,13,17,10,16.60
2016,06,13,17,11,19.10
2016,06,13,17,12,16.00
2016,06,13,17,13,29.00
2016,06,13,17,14,15.90
2016,06,13,17,15,18.50
2016,06,13,17,16,17.90
2016,06,13,17,17,9.90
2016,06,13,17,18,4.80
2016,06,13,17,19,16.70
2016,06,13,17,20,12.80
2016,06,13,17,21,7.80
2016,06,13,17,22,3.30
2016,06,13,17,23,14.20
2016,06,13,17,24,16.10
2016,06,13,17,25,20.70
2016,06,13,17,26,27.90
2016,06,13,17,27,18.00
2016,06,13,17,28,17.10
2016,06,13,17,29,20.70
2016,06,13,17,30,23.40
2016,06,13,17,31,17.90
2016,06,13,17,32,19.90
2016,06,13,17,33,16.30
2016,06,13,17,34,14.80
2016,06,13,17,35,17.40
2016,06,13,17,36,14.60
2016,06,13,17,37,22.40
2016,06,13,17,38,24.10
2016,06,13,17,39,16.30
2016,06,13,17,40,14.60
2016,06,13,17,41,21.50
2016,06,13,17,42,24.80
2016,06,13,17,43,20.20
2016,06,13,17,44,11.30
2016,06,13,17,45,11.90
2016,06,13,17,46,7.30
2016,06,13,17,47,12.30
2016,06,13,17,48,24.00